Theta_e
335 334 333 331 333 337 336 335 327 330 332 333 332 331 331 331 330 330 330 333 331 330 330 331 330 331 334 335 333 333 334 332 331 331 331 330 329 329 329 328 329 329 329
339 336 333 331 332 334 336 331 329 327 331 331 329 330 329 328 328 327 328 329 330 330 330 330 331 330 330 330 330 331 331 330 329 328 328 328 328 328 327 327 327 327 327
339 339 336 334 333 336 336 327 327 327 326 326 328 328 327 327 326 325 326 327 329 331 330 329 329 330 330 330 330 329 329 329 328 328 328 328 328 328 327 327 327 327 326
340 337 337 335 335 334 334 327 323 323 323 324 325 325 323 324 324 325 326 326 327 327 330 330 330 330 330 330 330 329 328 328 328 328 328 328 327 326 325 325 325 326 327
343 338 337 333 333 330 330 328 325 324 323 323 323 324 323 322 323 324 324 325 325 327 326 330 330 330 330 330 330 330 329 329 328 328 328 327 326 326 325 325 325 325 324
344 339 334 332 333 331 329 327 327 324 324 324 324 324 322 321 321 322 323 324 324 324 325 325 329 330 331 331 330 330 330 330 329 329 328 327 326 326 325 325 325 325 324
341 337 333 330 332 330 330 328 327 325 324 324 322 320 320 320 320 320 322 323 323 323 324 324 325 327 329 333 332 331 331 331 330 329 328 327 326 326 325 324 324 324 323
340 337 332 329 328 330 329 329 328 325 323 323 321 317 316 318 319 319 320 321 322 323 323 323 324 325 326 328 332 333 332 332 332 330 329 330 327 327 326 325 324 323 323
338 335 332 330 329 330 330 329 328 326 325 323 323 321 314 312 313 319 319 320 322 320 323 323 323 324 326 326 329 332 334 334 333 332 330 328 328 327 327 326 324 323 323
337 335 333 331 331 330 328 329 329 326 323 323 322 322 322 319 317 315 317 319 320 320 322 322 323 324 325 325 328 331 333 334 334 332 332 330 328 328 328 327 326 324 324
337 336 335 334 331 329 329 330 329 327 325 324 323 323 322 320 319 317 316 317 318 320 322 322 323 323 324 324 325 327 332 332 333 333 334 333 330 329 329 328 327 326 325
336 336 336 334 332 331 330 330 329 328 328 326 326 324 323 322 319 316 314 315 316 319 322 322 322 323 323 322 326 327 328 330 330 331 331 333 333 332 330 329 329 329 327
334 336 336 334 333 332 331 330 328 328 327 326 327 327 325 324 325 320 318 318 318 323 319 323 324 324 324 323 323 328 328 327 328 328 329 330 331 332 332 332 331 330 329
334 335 335 334 334 332 332 330 329 328 328 327 327 325 325 325 324 322 321 320 318 317 321 322 327 324 323 323 324 326 327 327 326 326 326 327 329 330 330 330 330 331 331
336 334 332 330 332 332 331 331 329 328 328 326 327 326 324 325 325 324 324 322 317 312 315 323 323 322 325 325 325 324 324 326 327 325 325 326 326 328 328 328 328 328 328
328 329 330 331 330 330 329 328 326 326 325 325 324 323 324 324 324 325 324 322 323 319 313 323 324 321 322 324 326 327 326 327 326 325 326 325 324 325 326 327 326 326 327
329 330 329 326 325 326 326 326 325 325 322 321 321 321 321 321 321 321 321 322 320 319 312 320 321 322 321 321 322 325 325 326 326 326 326 325 323 323 323 325 325 325 325
325 325 323 322 322 321 320 320 319 319 318 317 317 317 317 317 316 317 317 317 318 318 315 312 317 318 317 321 321 321 320 323 323 325 325 324 323 321 321 322 322 322 322
321 321 320 320 320 320 319 317 316 316 316 315 315 314 314 313 313 314 314 314 316 317 316 315 313 318 317 319 319 320 317 319 319 323 323 322 321 321 320 320 320 319 317
317 317 318 317 317 316 316 315 313 314 313 313 313 313 313 312 312 313 314 314 314 313 314 314 315 315 317 319 316 313 313 316 318 318 321 322 322 321 320 320 320 319 314
317 315 313 313 314 313 311 313 313 312 310 310 311 311 312 313 315 317 316 315 313 311 312 310 312 312 313 313 312 316 314 314 313 316 316 317 319 321 321 319 322 320 313
316 312 310 310 311 311 308 307 311 309 309 308 307 309 310 311 312 312 312 312 313 311 310 309 310 308 311 312 314 314 314 311 308 314 314 313 317 314 315 316 315 312 310
313 310 309 309 311 313 305 304 307 309 308 307 307 307 307 308 309 309 310 309 309 308 311 311 308 309 309 312 312 312 312 312 310 315 313 310 313 312 315 314 312 310 308
311 310 309 310 311 311 304 302 304 309 308 308 308 308 306 307 308 307 307 308 308 309 310 309 310 310 311 312 311 312 313 313 314 314 314 308 311 310 312 313 311 309 307
310 309 309 311 310 310 302 301 303 307 307 307 307 308 307 306 302 300 300 302 304 306 308 306 305 304 303 302 305 309 308 307 308 309 313 310 308 308 308 307 309 308 305
309 310 310 310 306 307 302 299 302 305 305 305 307 306 303 303 299 298 299 297 297 301 304 305 306 305 304 307 304 309 310 307 308 306 311 309 307 308 304 308 307 307 306
Wind_Speed
3 2 2 2 2 2 1 2 2 4 5 5 4 4 3 1 1 1 1 1 1 2 3 3 4 6 7 8 7 9 11 11 11 11 12 11 11 10 11 12 11 11 11
2 3 3 3 2 3 2 2 3 3 4 6 5 5 5 4 3 2 1 2 3 3 4 6 6 5 5 7 8 10 11 11 11 12 11 12 12 11 12 11 12 12 11
5 3 2 3 3 2 5 3 3 2 2 2 4 4 4 4 4 4 3 2 2 5 4 4 5 7 8 8 8 10 10 11 12 11 11 11 11 11 10 10 11 11 11
5 4 3 3 1 1 2 4 3 1 2 3 2 4 3 3 4 5 3 3 3 2 5 7 7 7 9 10 10 10 10 10 11 11 11 11 10 10 10 11 11 11 12
6 5 3 1 3 3 1 2 2 2 2 3 4 4 5 5 5 4 5 5 4 4 3 7 9 10 10 10 11 11 11 11 11 11 12 11 12 11 11 11 12 12 11
3 2 3 4 3 2 2 2 2 2 2 3 4 5 4 4 5 5 6 5 6 6 5 6 5 6 12 13 13 13 14 14 13 13 12 12 12 12 12 12 11 11 11
3 4 2 2 2 3 3 3 2 3 2 2 1 2 3 4 6 6 6 6 8 8 8 7 5 5 6 15 15 16 16 16 16 15 14 14 13 13 13 12 12 11 11
5 4 4 3 3 2 2 2 2 1 1 3 2 0 2 2 4 8 7 8 11 8 9 10 9 9 8 7 11 18 19 19 19 18 17 15 16 15 14 13 12 12 11
5 4 5 3 3 2 2 3 3 4 2 2 5 2 1 4 1 0 7 8 9 8 8 9 11 11 10 9 11 16 21 20 21 21 20 18 18 17 16 14 13 13 12
5 5 4 5 4 2 4 3 2 3 3 3 1 5 3 2 3 4 2 5 8 10 11 9 11 12 12 10 16 19 21 22 23 23 23 22 22 20 19 18 17 16 15
6 6 4 3 4 3 3 4 4 4 3 3 4 2 3 3 4 6 7 4 4 8 9 11 11 11 14 13 12 16 24 23 25 24 23 23 24 23 22 21 20 19 18
5 4 4 3 4 4 5 5 4 4 4 4 3 4 4 4 2 4 7 5 7 4 8 9 10 11 12 12 18 25 24 25 25 26 25 25 25 25 25 24 23 22 21
3 5 4 4 3 5 4 4 4 5 4 4 5 5 5 6 6 4 5 7 7 5 5 8 9 9 10 10 13 25 26 26 26 25 26 25 26 27 26 25 25 25 25
2 3 5 3 3 4 3 4 3 3 4 4 6 4 4 5 5 5 5 5 8 6 7 10 4 8 5 7 13 21 14 23 26 26 24 26 26 27 28 27 26 25 24
1 3 6 5 3 3 3 1 1 2 2 3 4 4 3 3 3 3 5 5 5 7 6 5 4 5 6 7 13 11 13 20 24 27 27 27 27 27 28 28 27 27 26
4 6 3 3 1 2 2 2 1 1 1 2 2 4 4 3 4 3 3 4 5 6 6 2 5 5 7 8 11 12 12 19 21 24 28 28 29 29 28 28 28 27 24
3 2 4 3 3 3 3 3 3 3 3 4 3 3 5 3 3 4 3 4 6 5 7 5 3 2 5 10 8 8 8 10 9 15 18 26 29 29 30 28 25 26 26
5 5 5 5 4 4 4 5 4 4 3 4 5 5 6 4 6 5 3 6 5 6 4 9 6 4 7 7 8 9 7 6 6 11 14 16 24 27 27 26 26 23 22
5 4 4 4 2 3 3 2 1 2 3 4 4 5 6 5 6 4 5 5 5 5 5 4 5 3 3 4 5 7 5 5 4 9 12 12 16 25 26 26 26 19 18
6 4 4 2 1 2 3 3 3 3 4 5 5 5 6 6 7 7 6 7 5 5 6 7 5 6 5 5 4 5 5 4 7 6 9 8 7 18 25 27 25 25 21
5 3 3 3 2 2 2 3 4 4 4 6 6 5 4 7 12 9 5 7 6 4 5 6 6 4 5 4 5 4 5 5 4 5 4 4 4 6 10 20 21 23 17
4 3 1 2 2 3 6 6 3 3 4 5 6 6 6 10 10 12 11 9 8 6 6 4 5 6 8 5 4 5 6 3 4 3 3 4 5 6 6 6 15 20 17
1 2 3 3 5 5 8 10 7 4 5 6 7 6 8 7 10 8 10 11 9 8 10 5 7 7 7 4 3 5 6 5 5 4 3 2 3 5 6 8 20 14 21
1 3 3 4 4 4 8 8 7 5 5 6 5 5 5 8 8 10 11 10 10 9 8 4 6 9 8 7 6 6 6 3 2 2 3 2 2 3 3 2 15 22 19
3 3 3 4 3 5 8 9 7 6 5 6 6 7 8 9 12 12 10 11 13 11 7 9 11 12 13 9 7 4 5 4 3 2 4 2 3 2 2 3 6 15 14
3 2 3 2 2 5 6 6 5 3 5 6 7 7 9 10 14 11 9 9 10 13 11 12 9 8 9 9 11 8 6 7 4 2 4 4 3 3 2 2 6 8 9
Wind_Direction
247 228 262 214 228 265 162 118 105 133 143 149 147 140 164 168 145 345 342 210 217 150 139 165 163 165 155 135 135 133 125 140 138 135 125 120 121 118 114 113 108 105 105
244 199 232 236 242 223 154 154 146 157 180 167 167 173 174 185 195 188 274 300 202 196 182 169 170 166 169 168 162 150 148 151 148 143 139 135 133 131 127 125 122 119 114
208 195 204 234 244 192 154 122 97 99 168 238 189 193 194 186 199 202 196 240 249 203 207 188 179 169 170 170 167 166 167 161 156 152 151 148 144 135 134 134 134 130 126
195 189 209 226 304 77 151 139 129 123 200 211 227 220 217 214 219 223 200 208 237 227 215 205 196 195 183 177 181 179 176 175 169 166 161 154 151 148 148 140 139 138 132
196 188 185 224 177 134 131 130 130 141 193 207 230 229 229 221 219 219 230 223 222 238 239 237 207 202 203 194 190 190 188 188 187 180 176 171 166 163 159 152 147 142 138
205 135 160 170 164 140 163 175 178 186 171 207 214 226 231 235 217 222 221 222 225 230 231 231 230 219 211 209 204 200 199 198 197 195 190 186 180 174 171 164 157 149 143
213 168 188 187 172 184 200 194 170 206 241 177 125 281 272 231 225 227 219 223 225 219 222 225 224 213 223 219 215 211 207 203 205 203 200 198 191 186 183 175 171 163 156
190 192 186 201 190 225 211 197 207 195 224 194 183 33 298 288 240 229 218 220 228 223 221 223 225 221 215 219 220 217 216 212 209 209 205 202 201 198 196 189 182 178 172
183 183 187 180 202 192 240 219 218 207 249 213 218 176 246 244 322 71 231 227 229 221 228 227 228 228 225 221 221 221 218 218 216 213 210 208 210 206 204 202 198 193 188
180 180 178 194 214 196 222 233 208 212 184 248 257 230 241 175 237 296 223 241 228 221 223 222 222 223 222 223 224 221 222 217 220 217 214 211 213 213 209 208 206 204 202
169 173 201 204 218 204 224 235 239 218 195 221 208 255 250 235 228 238 283 236 233 233 232 228 225 222 218 218 221 229 222 220 217 220 216 214 215 217 215 211 210 208 207
161 158 185 214 227 237 219 217 234 264 295 271 268 225 242 247 223 213 243 258 252 225 224 228 225 227 229 224 222 221 226 225 221 218 218 215 214 216 218 217 215 214 212
262 144 176 202 222 245 253 263 234 243 229 233 242 256 230 235 242 239 242 261 267 279 237 225 227 230 228 221 224 228 225 229 227 225 220 219 216 214 217 217 218 219 216
225 163 137 82 358 288 253 243 269 280 253 252 271 251 267 270 233 231 245 252 275 260 267 261 209 219 208 218 239 233 236 235 231 232 224 223 222 217 216 218 219 220 219
163 76 26 42 341 326 307 331 311 305 302 305 284 269 254 268 266 242 241 245 262 284 280 277 260 241 220 210 219 219 221 235 232 229 228 227 226 223 218 216 217 220 223
21 30 24 29 23 75 85 100 64 32 295 273 266 282 280 271 273 245 273 277 251 266 283 247 274 231 227 232 225 221 215 220 227 233 229 226 228 227 225 219 215 214 218
29 53 73 94 81 74 56 57 41 24 359 342 342 317 303 305 292 296 286 278 279 277 282 286 266 261 244 239 242 242 245 231 220 217 230 232 228 227 226 224 221 213 210
84 103 96 79 65 52 39 28 14 18 1 334 321 325 302 327 312 303 296 290 279 276 263 277 284 282 260 255 249 242 237 231 230 229 219 231 232 225 222 221 222 211 202
98 92 86 78 54 35 31 16 325 302 288 277 289 291 286 303 296 296 294 285 276 276 263 252 267 268 260 261 269 249 238 231 225 246 246 227 234 225 214 212 213 204 192
137 134 100 90 102 157 211 238 280 286 308 306 288 276 278 282 280 287 285 282 284 287 284 280 259 264 258 252 227 266 264 241 255 223 239 235 240 224 215 208 202 195 178
122 119 172 182 172 223 254 291 294 299 299 311 309 304 293 293 295 271 268 279 283 279 281 279 281 254 261 250 236 238 245 266 247 236 217 215 200 222 220 208 199 188 164
146 185 173 258 260 245 257 267 239 314 319 303 301 307 306 304 309 296 301 276 247 259 274 274 282 270 271 265 269 257 260 267 285 195 228 226 186 187 164 163 153 143 141
71 359 288 313 306 309 326 342 8 338 311 307 298 308 322 322 320 312 306 299 288 261 236 251 277 278 287 282 292 269 243 247 260 294 208 255 189 197 180 164 151 154 153
261 278 303 288 297 307 350 1 343 316 310 306 312 333 313 312 320 327 324 304 292 283 277 242 243 266 265 284 266 279 286 244 255 247 209 275 191 188 125 133 172 160 162
264 265 263 272 296 315 342 348 335 328 333 336 338 343 340 346 342 343 322 304 296 287 277 257 251 247 261 253 248 264 247 220 248 227 203 251 180 124 129 141 169 162 151
288 294 279 306 327 316 330 347 15 344 346 339 334 344 339 342 324 322 314 302 291 288 296 299 293 279 270 268 218 217 239 238 209 210 200 201 165 144 138 137 157 155 151